Orbital Elements at Epoch 2459200.5 (2020-Dec-17.0) TDB
Reference: JPL 24 (heliocentric ecliptic J2000)
Element | Value | Uncertainty (1-sigma) | Units |
e | .1865451150969193 | 3.3278e-08 | |
a | 2.271717791038789 | 7.5952e-09 | au |
q | 1.847939934241739 | 7.6372e-08 | au |
i | 4.944971995344531 | 3.9048e-06 | deg |
node | 261.6083696676808 | 4.6535e-05 | deg |
peri | 37.36450898391401 | 4.7734e-05 | deg |
M | 108.3571297726593 | 1.1235e-05 | deg |
tp | 2458824.069341333109 (2019-Dec-06.56934133) | 3.844e-05 | TDB |
period | 1250.633321539623 3.42 | 6.272e-06 1.717e-08 | d yr |
n | .2878541566098791 | 1.4436e-09 | deg/d |
Q | 2.695495647835839 | 9.012e-09 | au |
|
| | Orbit Determination Parameters
Additional Information
|